Location: Atherton
(17.2661°S, 145.4859°E)
Time: 22:14:21
(UTC+10:00)

Transit 2A - Pass Details

Date: 27 June 2025
Orbit: 598 x 948 km, 66.7° (Epoch: 19 July)

Event Time Altitude Azimuth Distance (km) Brightness Sun altitude
Rises 10:09:09 0° 303° (WNW) 3,438 9.3 38.2°
Reaches altitude 10° 10:12:18 10° 286° (WNW) 2,561 8.6 38.6°
Maximum altitude 10:16:28 19° 241° (WSW) 2,032 8.0 39.3°
Drops below altitude 10° 10:20:48 10° 197° (SSW) 2,668 8.5 39.9°
Sets 10:24:12 0° 180° (S) 3,631 9.1 40.4°
